"Pseudo-MPEC" for P21Oj7o

Created 2023 Dec 2 1:22:06 UT using Find_Orb

Click here for an explanation of pseudo-MPECs

 
 Astrometry: 
     P21Oj7o* C2023 11 18,+S;o@5dPnLWAstrometryk!t#.6@PX3LI-W!kObv(WEIlcSc2Y@F52
     P21Oj7o  C2023 11 18#[;Zi+s+X,W\nh]_ry6TW5W#y1feD-h%I-#Bl5)#qwk/6cbr?OCoF52
     P21Oj7o  C2023 11 18`/Z+pdL$3Y[0%q9(BjN+kn-c3#90rSt,8D.redacted;#qfclickF52
     P21Oj7o  C2023 11 18j*HT0?Gl;k@Gr2;Yu(6hmbBAherenZeV76B(Aj6+c^w%OrL!*A4YF52
     P21Oj7o KC2023 11 19#JHJ2jkZ$16GYxBI4'gL%lQrW5formlnexplanationpppA]`f=?H21
     P21Oj7o KC2023 11 19w.[EAYADGI1t(#PYO-nBSbm$3h;MT2lR@MQa`r,.uq\#u2\$s*G'H21

Station data:
(F52) Pan-STARRS 2, Haleakala  (N20.707382 W156.255910)  US/Hawaii.
   Observers J. Bulger, T. Dukes, T. Lowe, A. Schultz, M. Willman. Measurers
   K. Chambers, S. Chastel, T. de Boer, L. Denneau, J. Fairlamb, H.
   Flewelling, M. Huber, C.-C. Lin, E. Magnier, Y. Ramanjooloo, R. Wainscoat,
   R. Weryk. 1.8-m Ritchey-Chrétien + CCD.
(H21) Astronomical Research Observatory, Westfield  (N39.483054 W87.968270)
   US/Illinois.  Observer R. Holmes. Measurers S. Foglia, L. Buzzi, T.
   Linder, R. Holmes. 0.76-m f/3.0 astrograph + CCD0.81-m f/4.0 astrograph +
   CCD0.61-m f/4.5 astrograph + CCD0.40-m f/5.32 astrograph + CCD.

Orbital elements:  P21Oj7o
   Perihelion 2024 Jun 5.93529 +/- 259 TT = 22:26:49 (JD 2460467.43529)
Epoch 2023 Nov 19.0 TT = JDT 2460267.5   Earth MOID: 0.6491      AutoNEOCP
M 297.06536371 +/- 90               (J2000 ecliptic)
n   0.31477502 +/- 0.0701           Peri.   60.88646 +/- 60
a   2.14027314 +/- 0.318            Node    88.86701 +/- 11
e   0.2914880 +/- 0.173             Incl.   27.61129 +/- 6
P   3.13                   H 19.40  G  0.15   U 11.0  SR
q 1.51640903 +/- 0.212    Q 2.76413724 +/- 0.861
From 6 observations 2023 Nov. 18-19 (19.5 hr); mean residual 0".19
Residuals in arcseconds: 
231118 F52  .20+  .19-    231118 F52  .19-  .05-    231119 H21  .17-  .26+    
231118 F52  .09+  .30+    231118 F52  .11-  .07-    231119 H21  .23+  .26-    

Ephemerides (geocentric):
Date (UTC) HH   RA             Dec           delta  r     elong  mag " sig PA
---- --------  ------------   ------------  ------ ------ -----  --- --------
2023 12 02 01  03 44 46.203   -07 14 33.48  1.0676 1.9784 148.9 21.9 1245  56
2023 12 02 02  03 44 42.306   -07 14 00.85  1.0675 1.9782 148.8 21.9 1253  56
2023 12 02 03  03 44 38.410   -07 13 28.17  1.0675 1.9781 148.8 21.9 1261  56
2023 12 02 04  03 44 34.515   -07 12 55.44  1.0674 1.9779 148.8 21.9 1268  56
2023 12 02 05  03 44 30.620   -07 12 22.66  1.0674 1.9778 148.8 21.9 1276  56
2023 12 02 06  03 44 26.726   -07 11 49.83  1.0673 1.9776 148.8 21.9 1284  56
2023 12 02 07  03 44 22.834   -07 11 16.96  1.0673 1.9775 148.7 21.9 1292  56
2023 12 02 08  03 44 18.942   -07 10 44.04  1.0672 1.9773 148.7 21.9 1300  56
2023 12 02 09  03 44 15.051   -07 10 11.07  1.0672 1.9772 148.7 21.9 1308  56
2023 12 02 10  03 44 11.161   -07 09 38.05  1.0671 1.9770 148.7 21.9 1316  56
2023 12 02 11  03 44 07.271   -07 09 04.98  1.0671 1.9769 148.7 21.9 1324  56
2023 12 02 12  03 44 03.383   -07 08 31.86  1.0670 1.9767 148.7 21.9 1331  56
2023 12 02 13  03 43 59.496   -07 07 58.70  1.0670 1.9766 148.6 21.9 1339  56
2023 12 02 14  03 43 55.609   -07 07 25.49  1.0669 1.9764 148.6 21.9 1347  55
2023 12 02 15  03 43 51.724   -07 06 52.23  1.0669 1.9763 148.6 21.9 1355  55
2023 12 02 16  03 43 47.839   -07 06 18.92  1.0668 1.9761 148.6 21.9 1364  55
2023 12 02 17  03 43 43.956   -07 05 45.57  1.0668 1.9760 148.6 21.9 1372  55
2023 12 02 18  03 43 40.073   -07 05 12.17  1.0667 1.9758 148.5 21.9 1380  55
2023 12 02 19  03 43 36.192   -07 04 38.71  1.0667 1.9757 148.5 21.9 1388  55
2023 12 02 20  03 43 32.311   -07 04 05.22  1.0666 1.9756 148.5 21.9 1396  55
2023 12 02 21  03 43 28.432   -07 03 31.67  1.0666 1.9754 148.5 21.9 1404  55
2023 12 02 22  03 43 24.553   -07 02 58.07  1.0666 1.9753 148.4 21.9 1412  55
2023 12 02 23  03 43 20.675   -07 02 24.43  1.0665 1.9751 148.4 21.9 1420  55
2023 12 03 00  03 43 16.799   -07 01 50.74  1.0665 1.9750 148.4 21.9 1429  55
2023 12 03 01  03 43 12.923   -07 01 17.00  1.0664 1.9748 148.4 21.9 1437  55
2023 12 03 02  03 43 09.049   -07 00 43.22  1.0664 1.9747 148.4 21.9 1445  55
2023 12 03 03  03 43 05.176   -07 00 09.38  1.0663 1.9745 148.3 21.9 1453  55
2023 12 03 04  03 43 01.303   -06 59 35.50  1.0663 1.9744 148.3 21.9 1462  55
2023 12 03 05  03 42 57.432   -06 59 01.57  1.0662 1.9742 148.3 21.9 1470  55
2023 12 03 06  03 42 53.562   -06 58 27.60  1.0662 1.9741 148.3 21.9 1478  55
2023 12 03 07  03 42 49.693   -06 57 53.57  1.0662 1.9739 148.3 21.9 1487  55
2023 12 03 08  03 42 45.825   -06 57 19.50  1.0661 1.9738 148.2 21.9 1495  55
2023 12 03 09  03 42 41.958   -06 56 45.38  1.0661 1.9736 148.2 21.9 1504  55
2023 12 03 10  03 42 38.092   -06 56 11.22  1.0660 1.9735 148.2 21.9 1512  55
2023 12 03 11  03 42 34.228   -06 55 37.00  1.0660 1.9733 148.2 21.9 1520  55
2023 12 03 12  03 42 30.364   -06 55 02.74  1.0660 1.9732 148.2 21.9 1529  55
2023 12 03 13  03 42 26.502   -06 54 28.44  1.0659 1.9730 148.1 21.9 1537  55
2023 12 03 14  03 42 22.641   -06 53 54.08  1.0659 1.9729 148.1 21.9 1546  55
2023 12 03 15  03 42 18.780   -06 53 19.68  1.0659 1.9727 148.1 21.9 1554  55
2023 12 03 16  03 42 14.922   -06 52 45.23  1.0658 1.9726 148.1 21.9 1563  55
2023 12 03 17  03 42 11.064   -06 52 10.73  1.0658 1.9724 148.0 21.9 1572  55
2023 12 03 18  03 42 07.207   -06 51 36.18  1.0657 1.9723 148.0 21.9 1580  55
2023 12 03 19  03 42 03.352   -06 51 01.59  1.0657 1.9721 148.0 21.9 1589  55
2023 12 03 20  03 41 59.498   -06 50 26.95  1.0657 1.9720 148.0 21.9 1597  55
2023 12 03 21  03 41 55.645   -06 49 52.27  1.0656 1.9718 148.0 21.9 1606  55
2023 12 03 22  03 41 51.794   -06 49 17.53  1.0656 1.9717 147.9 21.9 1615  55
2023 12 03 23  03 41 47.943   -06 48 42.75  1.0656 1.9715 147.9 21.9 1624  55
2023 12 04 00  03 41 44.094   -06 48 07.93  1.0655 1.9714 147.9 21.9 1632  55